Regional Weather Roundup
Issued by NWS

Home | Current Version | Previous Version | Graphics & Text | Print | Product List | Glossary On
Versions: 1 2 3 4 5 6 7 8 9 10 11 12 13 14 15 16 17 18 19 20 21 22 23 24 25 26 27 28 29 30 31 32 33 34 35 36 37 38 39 40 41 42 43 44 45 46 47 48 49 50
000
ASUS43 KBIS 282010
RWRND

NORTH DAKOTA REGIONAL WEATHER ROUNDUP
NATIONAL WEATHER SERVICE BISMARCK ND
300 PM CDT THU AUG 28 2014

NOTE: "FAIR" INDICATES FEW OR NO CLOUDS BELOW 12,000 FEET WITH NO
SIGNIFICANT WEATHER AND/OR OBSTRUCTIONS TO VISIBILITY.


NDZ001>003-009>011-017-282100-
NORTHWEST NORTH DAKOTA

CITY           SKY/WX    TMP DP  RH WIND       PRES   REMARKS
WILLISTON      SUNNY     88  52  29 S12       29.83F
MINOT          SUNNY     85  55  35 S13       29.82F
MINOT AFB      SUNNY     85  57  37 SW12G17   29.81F
$$

NDZ018>021-031>035-040>046-282100-
SOUTHWEST NORTH DAKOTA

CITY           SKY/WX    TMP DP  RH WIND       PRES   REMARKS
BISMARCK       CLOUDY    72  66  81 S8        29.89F
DICKINSON      MOSUNNY   84  57  39 W9        29.87F
GARRISON         N/A     81  67  62 S6        29.86F
HETTINGER ARPT PTSUNNY   78  57  48 S7        29.92F
$$

NDZ004>008-012>016-024-026-027-054-282100-
NORTHEAST NORTH DAKOTA

CITY           SKY/WX    TMP DP  RH WIND       PRES   REMARKS
GRAND FORKS    PTSUNNY   75  65  70 S16       29.89F
GRND FRKS AFB  PTSUNNY   75  69  80 S16       29.90F
DEVILS LAKE    PTSUNNY   75  64  69 S8        29.86F
$$

NDZ022-023-025-028>030-036>039-047>053-282100-
SOUTHEAST NORTH DAKOTA

CITY           SKY/WX    TMP DP  RH WIND       PRES   REMARKS
FARGO          CLOUDY    72  64  76 S12       29.92F
JAMESTOWN      CLOUDY    70  66  87 S5        29.90F
$$




USA.gov is the U.S. government's official web portal to all federal, state and local government web resources and services.